Regional Weather Roundup
Issued by NWS

Home | Current Version | Previous Version | Graphics & Text | Print | Product List | Glossary On
Versions: 1 2 3 4 5 6 7 8 9 10 11 12 13 14 15 16 17 18 19 20 21 22 23 24 25 26 27 28 29 30 31 32 33 34 35 36 37 38 39 40 41 42 43 44 45 46 47 48 49 50
781
ASUS45 KCYS 091310
RWRWY

WYOMING REGIONAL WEATHER ROUNDUP
NATIONAL WEATHER SERVICE CHEYENNE WY
600 AM MST TUE FEB 09 2016

NOTE:  "FAIR" INDICATES FEW OR NO CLOUDS BELOW 12,000 FEET
WITH NO SIGNIFICANT WEATHER AND/OR OBSTRUCTIONS TO VISIBILITY.

WYZ001-091400-
YELLOWSTONE NATIONAL PARK

CITY           SKY/WX    TMP DP  RH WIND       PRES   REMARKS
LK YELLOWSTONE   N/A     12   9  87 CALM      30.57R
W YELLOWSTONE  NOT AVBL

$$
WYZ002>013-054>058-071-098>099-091400-
NORTHERN WYOMING

CITY           SKY/WX    TMP DP  RH WIND       PRES   REMARKS
JACKSON        FAIR       5   3  92 N12       30.58S WCI -11
CODY           FAIR      27  18  69 NE3       30.34S
GREYBULL       FAIR      18  15  88 CALM      30.39S
WORLAND        FAIR      17  15  92 SE3       30.37S
SHERIDAN       CLEAR     41  27  56 W5        30.27S
BUFFALO        FAIR      41  26  55 N3        30.28F
GILLETTE       FAIR      32  27  81 W13       30.26S WCI  22
HULETT         FAIR      30  25  80 S9        30.25F WCI  22
NEWCASTLE      FAIR      32  25  74 N13       30.25R WCI  22

$$
WYZ014>020-022>026-101>103-091400-
CENTRAL WYOMING

CITY           SKY/WX    TMP DP  RH WIND       PRES   REMARKS
BIG PINEY      FAIR      24  19  81 CALM      30.48R
PINEDALE       FAIR      30  21  69 NW22      30.45S WCI  17
DUBOIS         FAIR      37  16  41 W28G36    30.41S WCI  25
LANDER         FAIR      21  12  68 NW7       30.38R WCI  12
RIVERTON       FAIR      17  12  80 CALM      30.39S
CASPER         FAIR      30  18  60 SW18      30.35R WCI  18
DOUGLAS        FAIR      30  21  69 NW14        N/A  WCI  19

$$
WYZ021-027>030-104>119-091400-
SOUTHERN WYOMING

CITY           SKY/WX    TMP DP  RH WIND       PRES   REMARKS
EVANSTON       FAIR      24  17  74 SW5       30.54S WCI  18
KEMMERER       FAIR      32  25  74 W12G23    30.50  WCI  23
FORT BRIDGER   SUNNY     32  23  69 W23       30.53F WCI  19
ROCK SPRINGS   FAIR      27  21  78 SW20      30.47R WCI  13
DIXON          FAIR      17  12  79 E9        30.53S WCI   6
RAWLINS        FAIR      25  17  72 SW15      30.42F WCI  13
SARATOGA       FAIR      14  10  85 CALM      30.45S
LARAMIE        FAIR      19  13  77 NE9       30.35R WCI   8
CHEYENNE       FAIR      36  18  48 NW15G25   30.29R WCI  27
TORRINGTON     FAIR      32  22  66 W10       30.27R WCI  24
PINE BLUFFS    FAIR      36  23  60 NW20G29   30.29R WCI  25

$$




USA.gov is the U.S. government's official web portal to all federal, state and local government web resources and services.